This demonstration page uses our WeatherBlox Daily Observations layout. Learn more.

Left ArrowRight Arrow

44.89941, -97.11507

Hourly Observations for May 5, 2022

Temp ( °F °C ) Dew Point ( °F °C ) Humidity (%) Winds ( mph kmh ) Pressure ( in mb ) Visibility ( mi km ) Precip ( " mm )
12:53 am 00:53 Cloudy 47 8.3 41 5 80 80 NW 3 6 30.11 1020 10 16 0.00 0.00
1:53 am 01:53 Cloudy 44 6.7 40 4.4 85 85 Calm 30.10 1019 10 16 0.00 0.00
2:53 am 02:53 Mostly Clear 45 7.2 40 4.4 83 83 Calm 30.08 1019 10 16 0.00 0.00
3:53 am 03:53 Mostly Clear 45 7.2 40 4.4 83 83 ESE 3 6 30.06 1018 10 16 0.00 0.00
4:53 am 04:53 Cloudy 46 7.8 40 4.4 79 79 ESE 3 6 30.07 1018 10 16 0.00 0.00
5:53 am 05:53 Cloudy 47 8.3 40 4.4 77 77 E 5 7 30.06 1018 10 16 0.00 0.00
6:24 am 06:24 Cloudy 47 8.3 40 4.4 77 77 E 3 6 30.07 1018 10 16 0.00 0.00
6:53 am 06:53 Cloudy with Light Rain 47 8.3 41 5 80 80 E 3 6 30.07 1018 10 16 0.00 0.00
7:18 am 07:18 Cloudy with Light Rain 47 8.3 41 5 80 80 ESE 3 6 30.07 1018 6 10 0.00 0.00
7:53 am 07:53 Cloudy with Light Rain 47 8.3 43 6.1 86 86 Calm 30.08 1019 7 11 0.02 0.51
8:27 am 08:27 Cloudy with Light Rain 46 7.8 43 6.1 89 89 ENE 3 6 30.09 1019 6 10 0.01 0.25
8:53 am 08:53 Cloudy with Light Rain 46 7.8 43 6.1 89 89 ENE 3 6 30.10 1019 6 10 0.02 0.51
9:53 am 09:53 Cloudy 49 9.4 45 7.2 86 86 NE 6 9 30.08 1019 10 16 0.01 0.25
10:53 am 10:53 Cloudy 50 10 44 6.7 80 80 E 6 9 30.07 1018 10 16 0.00 0.00
11:53 am 11:53 Mostly Cloudy 53 11.7 45 7.2 74 74 E 9 15 30.06 1018 10 16 0.00 0.00
12:53 pm 12:53 Cloudy 55 12.8 45 7.2 69 69 ESE 13 20 30.04 1017 10 16 0.00 0.00
1:53 pm 13:53 Cloudy 57 13.9 43 6.1 60 60 E 12 19 30.03 1017 10 16 0.00 0.00
2:53 pm 14:53 Cloudy 56 13.3 43 6.1 62 62 ESE 10 17 30.02 1017 10 16 0.00 0.00
3:53 pm 15:53 Cloudy 57 13.9 41 5 55 55 SE 12 19 29.98 1015 10 16 0.00 0.00
4:53 pm 16:53 Cloudy 56 13.3 43 6.1 62 62 E 9 15 29.96 1015 10 16 0.00 0.00
5:53 pm 17:53 Cloudy 57 13.9 42 5.6 58 58 SE 10 17 29.95 1014 10 16 0.00 0.00
6:53 pm 18:53 Cloudy 56 13.3 42 5.6 60 60 ESE 9 15 29.95 1014 10 16 0.00 0.00
7:53 pm 19:53 Cloudy 55 12.8 41 5 59 59 ESE 7 11 29.96 1014 10 16 0.00 0.00
8:53 pm 20:53 Cloudy 54 12.2 43 6.1 67 67 SE 3 6 29.97 1015 10 16 0.00 0.00
9:53 pm 21:53 Cloudy 54 12.2 43 6.1 67 67 Calm 29.97 1015 10 16 0.00 0.00
10:53 pm 22:53 Cloudy 53 11.7 44 6.7 72 72 Calm 29.97 1015 10 16 0.00 0.00
11:53 pm 23:53 Cloudy 52 11.1 44 6.7 75 75 Calm 29.95 1014 10 16 0.00 0.00

Powered by AerisWeather